When you browse on this site, cookies collect data to enhance your experience and personalize the content and advertising you see.
Visit our Privacy Policy to learn more. By continuing to use the site, you agree to this use of cookies and data.
  • în România
  • Lista ţărilor
  • Pe 7 zile
  • Temperatura apei
  • Hartă satelitară
  • Meteo pe hartă
  • Widget-uri
  • user-avatar
    Intrare

    Meteo pe oră la Kadzice

    Astăzi, 22 Februarie, Vineri

    Timp Temperatura Precipitaţii Vânt Presiune Umiditate
    00:00 +5°C° 0.4 mm 5 m/s 743 mmHg 86%
    01:00 +4°C° 0 mm 4 m/s 743 mmHg 87%
    02:00 +4°C° 0.6 mm 4 m/s 743 mmHg 88%
    03:00 +3°C° 0.6 mm 5 m/s 743 mmHg 89%
    04:00 +3°C° 0.6 mm 5 m/s 743 mmHg 89%
    05:00 +2°C° 0.5 mm 6 m/s 744 mmHg 87%
    06:00 -1°C° 0.5 mm 7 m/s 745 mmHg 84%
    07:00 -3°C° 0.5 mm 7 m/s 746 mmHg 82%
    08:00 -3°C° 0.1 mm 7 m/s 747 mmHg 76%
    09:00 -3°C° 0.1 mm 7 m/s 749 mmHg 70%
    10:00 -4°C° 0.1 mm 7 m/s 750 mmHg 64%
    11:00 -3°C° 0 mm 7 m/s 751 mmHg 58%
    12:00 -3°C° 0 mm 7 m/s 752 mmHg 51%
    13:00 -3°C° 0 mm 7 m/s 752 mmHg 45%
    14:00 -4°C° 0 mm 7 m/s 753 mmHg 45%
    15:00 -4°C° 0 mm 7 m/s 753 mmHg 45%
    16:00 -5°C° 0 mm 6 m/s 754 mmHg 45%
    17:00 -5°C° 0 mm 6 m/s 755 mmHg 46%
    18:00 -6°C° 0 mm 5 m/s 755 mmHg 46%
    19:00 -6°C° 0 mm 5 m/s 756 mmHg 47%
    20:00 -6°C° 0 mm 5 m/s 757 mmHg 44%
    21:00 -6°C° 0 mm 5 m/s 757 mmHg 42%
    22:00 -6°C° 0 mm 5 m/s 758 mmHg 39%
    23:00 -6°C° 0 mm 5 m/s 758 mmHg 40%

    Mâine, 23 Februarie, Sâmbătă

    Timp Temperatura Precipitaţii Vânt Presiune Umiditate
    00:00 -7°C° 0 mm 5 m/s 759 mmHg 40%
    01:00 -7°C° 0 mm 4 m/s 759 mmHg 41%
    02:00 -7°C° 0 mm 4 m/s 759 mmHg 42%
    03:00 -7°C° 0 mm 4 m/s 759 mmHg 44%
    04:00 -6°C° 0 mm 3 m/s 759 mmHg 45%
    05:00 -6°C° 0 mm 3 m/s 760 mmHg 47%
    06:00 -6°C° 0 mm 3 m/s 760 mmHg 49%
    07:00 -7°C° 0 mm 3 m/s 760 mmHg 50%
    08:00 -6°C° 0 mm 3 m/s 760 mmHg 48%
    09:00 -5°C° 0 mm 3 m/s 760 mmHg 45%
    10:00 -5°C° 0 mm 3 m/s 761 mmHg 42%
    11:00 -4°C° 0 mm 3 m/s 761 mmHg 40%
    12:00 -2°C° 0 mm 3 m/s 761 mmHg 37%
    13:00 -2°C° 0 mm 3 m/s 760 mmHg 34%
    14:00 -2°C° 0 mm 2 m/s 760 mmHg 35%
    15:00 -2°C° 0 mm 2 m/s 760 mmHg 35%
    16:00 -2°C° 0 mm 2 m/s 760 mmHg 36%
    17:00 0°C° 0 mm 1 m/s 760 mmHg 40%
    18:00 -1°C° 0 mm 1 m/s 760 mmHg 43%
    19:00 -2°C° 0 mm 1 m/s 760 mmHg 47%
    20:00 -2°C° 0 mm 1 m/s 760 mmHg 48%
    21:00 -2°C° 0 mm 1 m/s 760 mmHg 48%
    22:00 -3°C° 0 mm 0 m/s 760 mmHg 49%
    23:00 -2°C° 0 mm 1 m/s 760 mmHg 49%

    Poimâine, 24 Februarie, Duminică

    Timp Temperatura Precipitaţii Vânt Presiune Umiditate
    00:00 -2°C° 0 mm 1 m/s 760 mmHg 49%
    01:00 -2°C° 0 mm 1 m/s 759 mmHg 49%
    02:00 -2°C° 0 mm 1 m/s 759 mmHg 48%
    03:00 -1°C° 0 mm 1 m/s 759 mmHg 47%
    04:00 -1°C° 0 mm 1 m/s 759 mmHg 45%
    05:00 -1°C° 0 mm 1 m/s 759 mmHg 45%
    06:00 -1°C° 0 mm 1 m/s 759 mmHg 45%
    07:00 -1°C° 0 mm 1 m/s 759 mmHg 44%
    08:00 -2°C° 0 mm 2 m/s 759 mmHg 40%
    09:00 -1°C° 0 mm 2 m/s 758 mmHg 35%
    10:00 +1°C° 0 mm 2 m/s 758 mmHg 31%
    11:00 +2°C° 0 mm 2 m/s 758 mmHg 29%
    12:00 +2°C° 0 mm 3 m/s 758 mmHg 27%
    13:00 +4°C° 0 mm 3 m/s 758 mmHg 25%
    14:00 +3°C° 0 mm 3 m/s 757 mmHg 29%
    15:00 +4°C° 0 mm 2 m/s 757 mmHg 33%
    16:00 +4°C° 0 mm 2 m/s 757 mmHg 38%
    17:00 +2°C° 0 mm 2 m/s 757 mmHg 41%
    18:00 +1°C° 0 mm 2 m/s 757 mmHg 44%
    19:00 -1°C° 0 mm 2 m/s 757 mmHg 47%
    20:00 -1°C° 0 mm 2 m/s 757 mmHg 48%
    21:00 -1°C° 0 mm 3 m/s 757 mmHg 48%
    22:00 -1°C° 0 mm 3 m/s 758 mmHg 49%
    23:00 -1°C° 0 mm 3 m/s 757 mmHg 50%

    25 Februarie, Luni

    Timp Temperatura Precipitaţii Vânt Presiune Umiditate
    00:00 -1°C° 0 mm 3 m/s 757 mmHg 52%
    01:00 -1°C° 0 mm 3 m/s 757 mmHg 53%
    02:00 -1°C° 0 mm 3 m/s 757 mmHg 54%
    03:00 -2°C° 0 mm 4 m/s 757 mmHg 55%
    04:00 -2°C° 0 mm 4 m/s 757 mmHg 56%
    05:00 -2°C° 0 mm 4 m/s 757 mmHg 58%
    06:00 -2°C° 0 mm 4 m/s 757 mmHg 59%
    07:00 -2°C° 0 mm 4 m/s 757 mmHg 61%
    08:00 -1°C° 0 mm 4 m/s 756 mmHg 59%
    09:00 +1°C° 0 mm 4 m/s 756 mmHg 57%
    10:00 +2°C° 0 mm 5 m/s 756 mmHg 55%
    11:00 +3°C° 0 mm 5 m/s 756 mmHg 57%
    12:00 +5°C° 0 mm 5 m/s 756 mmHg 59%
    13:00 +6°C° 0 mm 5 m/s 756 mmHg 60%
    14:00 +6°C° 0 mm 4 m/s 756 mmHg 64%
    15:00 +5°C° 0 mm 4 m/s 756 mmHg 69%
    16:00 +5°C° 0 mm 4 m/s 755 mmHg 73%
    17:00 +4°C° 0 mm 3 m/s 756 mmHg 78%
    18:00 +4°C° 0 mm 2 m/s 756 mmHg 84%
    19:00 +3°C° 0 mm 2 m/s 756 mmHg 90%
    20:00 +2°C° 0 mm 2 m/s 756 mmHg 91%
    21:00 +2°C° 0 mm 2 m/s 756 mmHg 92%
    22:00 +1°C° 0 mm 2 m/s 755 mmHg 93%
    23:00 +1°C° 0 mm 2 m/s 755 mmHg 93%

    26 Februarie, Marţi

    Timp Temperatura Precipitaţii Vânt Presiune Umiditate
    00:00 0°C° 0 mm 3 m/s 754 mmHg 93%
    01:00 0°C° 0 mm 3 m/s 754 mmHg 93%
    02:00 0°C° 0 mm 3 m/s 753 mmHg 92%
    03:00 0°C° 0 mm 4 m/s 753 mmHg 92%
    04:00 0°C° 0 mm 4 m/s 752 mmHg 91%
    05:00 0°C° 0 mm 5 m/s 752 mmHg 88%
    06:00 0°C° 0 mm 5 m/s 751 mmHg 86%
    07:00 -1°C° 0 mm 6 m/s 751 mmHg 83%
    08:00 +1°C° 0 mm 6 m/s 750 mmHg 79%
    09:00 +2°C° 0 mm 6 m/s 750 mmHg 74%
    10:00 +2°C° 0 mm 6 m/s 750 mmHg 69%
    11:00 +3°C° 0 mm 6 m/s 750 mmHg 71%
    12:00 +3°C° 0 mm 6 m/s 749 mmHg 72%
    13:00 +3°C° 0 mm 6 m/s 749 mmHg 73%
    14:00 +3°C° 0 mm 6 m/s 749 mmHg 72%
    15:00 +4°C° 0 mm 6 m/s 749 mmHg 71%
    16:00 +4°C° 0 mm 6 m/s 749 mmHg 70%
    17:00 +3°C° 0 mm 6 m/s 749 mmHg 74%
    18:00 +3°C° 0 mm 6 m/s 749 mmHg 78%
    19:00 +2°C° 0 mm 6 m/s 749 mmHg 82%
    20:00 +2°C° 0 mm 5 m/s 749 mmHg 79%
    21:00 +1°C° 0 mm 5 m/s 749 mmHg 76%
    22:00 +1°C° 0 mm 5 m/s 749 mmHg 74%
    23:00 0°C° 0 mm 5 m/s 750 mmHg 76%

    27 Februarie, Miercuri

    Timp Temperatura Precipitaţii Vânt Presiune Umiditate
    00:00 0°C° 0 mm 4 m/s 750 mmHg 78%
    01:00 -1°C° 0 mm 4 m/s 750 mmHg 80%
    02:00 -1°C° 0 mm 4 m/s 750 mmHg 83%
    03:00 -2°C° 0 mm 4 m/s 750 mmHg 85%
    04:00 -2°C° 0 mm 4 m/s 750 mmHg 88%
    05:00 -1°C° 0 mm 3 m/s 750 mmHg 89%
    06:00 -1°C° 0 mm 3 m/s 751 mmHg 90%
    07:00 -1°C° 0 mm 3 m/s 751 mmHg 91%
    08:00 0°C° 0 mm 3 m/s 751 mmHg 83%
    09:00 +2°C° 0 mm 3 m/s 751 mmHg 75%
    10:00 +3°C° 0 mm 3 m/s 751 mmHg 67%
    11:00 +4°C° 0 mm 3 m/s 751 mmHg 61%
    12:00 +5°C° 0 mm 3 m/s 750 mmHg 55%
    13:00 +7°C° 0 mm 3 m/s 750 mmHg 49%
    14:00 +7°C° 0 mm 3 m/s 749 mmHg 49%
    15:00 +7°C° 0 mm 3 m/s 749 mmHg 50%
    16:00 +6°C° 0 mm 4 m/s 748 mmHg 50%
    17:00 +5°C° 0 mm 3 m/s 748 mmHg 55%
    18:00 +4°C° 0 mm 3 m/s 748 mmHg 61%
    19:00 +3°C° 0 mm 3 m/s 748 mmHg 66%
    20:00 +3°C° 0 mm 4 m/s 747 mmHg 65%
    21:00 +1°C° 0 mm 4 m/s 746 mmHg 64%
    22:00 +1°C° 0 mm 4 m/s 746 mmHg 64%
    23:00 +1°C° 0 mm 4 m/s 745 mmHg 60%
    Arată mai mult